This demonstration page uses our WeatherBlox Daily Observations layout. Learn more.

Left ArrowRight Arrow

36.19886, -115.1175

Hourly Observations for February 5, 2022

Temp ( °F °C ) Dew Point ( °F °C ) Humidity (%) Winds ( mph kmh ) Pressure ( in mb ) Visibility ( mi km ) Precip ( " mm )
12:53 am 00:53 Clear 38 3.3 14 -10 37 37 W 3 6 30.47 1032 10 16 0.00 0.00
1:53 am 01:53 Clear 38 3.3 14 -10 37 37 W 7 11 30.45 1031 10 16 0.00 0.00
2:53 am 02:53 Clear 36 2.2 13 -10.6 39 39 WNW 5 7 30.44 1031 10 16 0.00 0.00
3:53 am 03:53 Clear 36 2.2 12 -11.1 37 37 NW 5 7 30.43 1030 10 16 0.00 0.00
4:53 am 04:53 Clear 42 5.6 10 -12.2 27 27 NNW 12 19 30.41 1030 10 16 0.00 0.00
5:53 am 05:53 Clear 38 3.3 10 -12.2 31 31 NW 8 13 30.41 1030 10 16 0.00 0.00
6:53 am 06:53 Sunny 40 4.4 10 -12.2 29 29 NW 7 11 30.43 1031 10 16 0.00 0.00
7:53 am 07:53 Sunny 42 5.6 11 -11.7 28 28 NW 10 17 30.43 1031 10 16 0.00 0.00
8:53 am 08:53 Sunny 48 8.9 11 -11.7 22 22 NNW 6 9 30.42 1030 10 16 0.00 0.00
9:53 am 09:53 Sunny 49 9.4 12 -11.1 22 22 ESE 3 6 30.42 1030 10 16 0.00 0.00
10:53 am 10:53 Sunny 53 11.7 12 -11.1 19 19 ESE 7 11 30.41 1030 10 16 0.00 0.00
11:53 am 11:53 Sunny 55 12.8 12 -11.1 18 18 ESE 5 7 30.37 1029 10 16 0.00 0.00
12:53 pm 12:53 Sunny 58 14.4 12 -11.1 16 16 S 6 9 30.33 1027 10 16 0.00 0.00
1:53 pm 13:53 Sunny 61 16.1 12 -11.1 14 14 ESE 3 6 30.29 1026 10 16 0.00 0.00
2:53 pm 14:53 Sunny 61 16.1 12 -11.1 14 14 SE 3 6 30.27 1025 10 16 0.00 0.00
3:53 pm 15:53 Sunny 63 17.2 13 -10.6 14 14 SE 3 6 30.25 1025 10 16 0.00 0.00
4:53 pm 16:53 Sunny 61 16.1 12 -11.1 14 14 S 3 6 30.24 1024 10 16 0.00 0.00
5:53 pm 17:53 Clear 58 14.4 13 -10.6 17 17 Calm 30.26 1025 10 16 0.00 0.00
6:53 pm 18:53 Clear 54 12.2 14 -10 20 20 NW 5 7 30.29 1026 10 16 0.00 0.00
7:53 pm 19:53 Clear 55 12.8 10 -12.2 16 16 N 5 7 30.29 1026 10 16 0.00 0.00
8:53 pm 20:53 Clear 55 12.8 10 -12.2 16 16 NNE 7 11 30.29 1026 10 16 0.00 0.00
9:53 pm 21:53 Clear 51 10.6 9 -12.8 18 18 NW 9 15 30.30 1026 10 16 0.00 0.00
10:53 pm 22:53 Clear 54 12.2 10 -12.2 17 17 N 12 19 30.28 1025 10 16 0.00 0.00
11:53 pm 23:53 Clear 49 9.4 10 -12.2 21 21 NNW 3 6 30.29 1026 10 16 0.00 0.00

Powered by AerisWeather